Flag for Thailand Weather past 2 weeks in Phuket, Thailand

Now
81 °F

Passing clouds.


Feels Like: 86 °F
Forecast: 75 / 88 °F
Wind: 3 mph from North

Location: Phuket Airport

Current Time: Mar 7, 2015 at 5:00:54 AM

Latest Report: Mar 7, 2015 at 2:30 AM


Visibility: 4 mi

Pressure: 29.86 "Hg

Humidity: 84%

Dew point: 75 °F

Location of PhuketLocation

Historic Weather in Phuket — Graph

°F

Phuket temperature yesterday

Maximum temperature yesterday: 91 °F (at 12:30 PM)
Minimum temperature yesterday: 77 °F (at 2:00 AM)
Average temperature yesterday: 84 °F

Past Weeks' High & Low Weather Summary

 TemperatureHumidityPressure
High93 °F (Mar 1, 3:00 PM)94% (Mar 1, 5:30 AM)29.95 "Hg (Mar 1, 5:30 AM)
Low72 °F (Mar 2, 6:30 AM)34% (Feb 22, 3:30 PM)29.77 "Hg (Feb 20, 3:30 PM)
Average83 °F69%29.86 "Hg
* Reported Feb 20 2:00 AM — Mar 7 2:30 AM, Phuket, Weather by CustomWeather, © 2015

Note: Actual official high and low records may vary slightly from our data, if they occured in-between our weather recording intervals... More about our weather records

Advertising

Phuket weather history for previous 24 hours

 ConditionsComfort  
Time TempWeatherWind HumidityBarometerVisibility
2:30 AM
Sat, Mar 7
81 °FPassing clouds.3 mph84%29.86 "Hg4 mi
2:00 AM81 °FPassing clouds.3 mph84%29.86 "Hg4 mi
1:00 AM79 °FPassing clouds.2 mph89%29.89 "Hg4 mi
12:30 AM81 °FPassing clouds.No wind84%29.89 "Hg4 mi
11:30 PM
Fri, Mar 6
82 °FPassing clouds.3 mph79%29.89 "Hg4 mi
11:00 PM82 °FPassing clouds.7 mph79%29.89 "Hg4 mi
10:30 PM82 °FPassing clouds.6 mph79%29.89 "Hg4 mi
10:00 PM82 °FPassing clouds.6 mph79%29.89 "Hg4 mi
9:30 PM84 °FPassing clouds.6 mph74%29.89 "Hg4 mi
9:00 PM84 °FPartly cloudy.7 mph74%29.86 "Hg4 mi
8:30 PM84 °FPartly cloudy.7 mph74%29.86 "Hg4 mi
8:00 PM84 °FPartly cloudy.8 mph74%29.83 "Hg4 mi
7:30 PM84 °FPartly cloudy.9 mph74%29.83 "Hg4 mi
7:00 PM84 °FPartly cloudy.8 mph74%29.83 "Hg4 mi
6:30 PM84 °FBroken clouds.9 mph74%29.80 "Hg4 mi
6:00 PM86 °FPartly sunny.10 mph66%29.80 "Hg5 mi
5:30 PM86 °FPartly sunny.12 mph66%29.80 "Hg5 mi
5:00 PM86 °FPartly sunny.14 mph70%29.80 "Hg5 mi
4:30 PM88 °FPartly sunny.14 mph66%29.80 "Hg5 mi
4:00 PM88 °FPartly sunny.14 mph66%29.80 "Hg5 mi
3:30 PM88 °FPartly sunny.13 mph66%29.80 "Hg5 mi
3:00 PM90 °FPartly sunny.14 mph63%29.80 "Hg5 mi
2:30 PM90 °FPartly sunny.13 mph63%29.83 "Hg5 mi
2:00 PM91 °FPartly sunny.7 mph46%29.83 "Hg5 mi
1:30 PM91 °FPartly sunny.9 mph52%29.86 "Hg5 mi
1:00 PM90 °FPartly sunny.6 mph63%29.86 "Hg5 mi
12:30 PM91 °FPartly sunny.7 mph56%29.86 "Hg5 mi
12:00 PM90 °FPartly sunny.7 mph59%29.89 "Hg5 mi
11:30 AM90 °FPartly sunny.9 mph55%29.89 "Hg5 mi
11:00 AM90 °FPartly sunny.8 mph59%29.92 "Hg4 mi
10:30 AM90 °FPartly sunny.7 mph59%29.92 "Hg4 mi
10:00 AM88 °FPartly sunny.7 mph62%29.92 "Hg4 mi
9:30 AM86 °FPartly sunny.9 mph66%29.92 "Hg4 mi
9:00 AM86 °FPartly sunny.6 mph66%29.92 "Hg4 mi
8:30 AM82 °FPartly sunny.3 mph79%29.92 "Hg4 mi
8:00 AM81 °FPartly sunny.3 mph84%29.92 "Hg4 mi
7:30 AM77 °FPartly sunny.2 mph94%29.89 "Hg4 mi
7:00 AM77 °FPartly sunny.2 mph89%29.89 "Hg4 mi
6:30 AM77 °FPassing clouds.No wind89%29.86 "Hg4 mi
6:00 AM77 °FPassing clouds.1 mph89%29.86 "Hg4 mi
5:00 AM77 °FPartly cloudy.No wind89%29.86 "Hg4 mi
Weather by CustomWeather, © 2015

See weather overviewHow to use our weather pages